Florala, AL

4:46 PM CDT on June 22, 2017 (GMT -0500)
Florala

Weather History for K0J4 - June, 2013

Change the Weather History Date:

Sunday, June 2, 2013

  Actual Average (KCEW) Record (KCEW)
Temperature  
Mean Temperature 80 °F -  
Max Temperature 90 °F 89 °F 100 °F (2011)
Min Temperature 69 °F 64 °F 57 °F (1993)
Cooling Degree Days 14    
Growing Degree Days 30 (Base 50)    
Moisture  
Dew Point 70 °F    
Average Humidity 87    
Maximum Humidity 100    
Minimum Humidity 50    
Precipitation  
Precipitation 1.24 in - - ()
Sea Level Pressure  
Sea Level Pressure 29.97 in    
Wind  
Wind Speed 2 mph (WSW)    
Max Wind Speed 15 mph    
Max Gust Speed 21 mph    
Visibility 5 miles    
Events Fog , Thunderstorm    
Averages and records for this station are not official NWS values.
T = Trace of Precipitation, MM = Missing Value Source: NWS Daily Summary

Daily Weather History Graph

Daily Weather History Graph

Search for Another Location

Airport or City:

Trip Planner

Search our weather history database for the weather conditions in past years. The results will help you decide how hot, cold, wet, or windy it might be!

Date:

Astronomy

Jun. 02, 2013 Rise Set
Actual Time 5:41 AM CDT 7:44 PM CDT
Civil Twilight 5:14 AM CDT 8:12 PM CDT
Nautical Twilight 4:41 AM CDT 8:45 PM CDT
Astronomical Twilight 4:05 AM CDT 9:21 PM CDT
Moon 1:47 AM CDT (6/2) 2:33 PM CDT (6/2)
Length of Visible Light 14h 57m
Length of Day
14h 02m
Waning Crescent, 30% of the Moon is Illuminated
Jun 2
Waning Crescent
Jun 8
New
Jun 16
First Quarter
Jun 23
Full
Jun 29
Last Quarter

Hourly Weather History & Observations

Time (CDT) Temp. Heat Index Dew Point Humidity Pressure Visibility Wind Dir Wind Speed Gust Speed Precip Events Conditions
12:58 AM 71.1 °F - 69.1 °F 93% 29.99 in 9.0 mi Calm Calm - N/A   Clear
1:58 AM 70.0 °F - 68.0 °F 93% 29.98 in 3.0 mi Calm Calm - N/A   Clear
2:58 AM 71.1 °F - 68.0 °F 90% 29.97 in 5.0 mi Calm Calm - N/A   Clear
3:09 AM 71.6 °F - 69.8 °F 94% 29.98 in 5.0 mi Calm Calm - N/A   Partly Cloudy
3:22 AM 69.8 °F - 68.0 °F 94% 29.98 in 2.5 mi Calm Calm - N/A   Mostly Cloudy
3:26 AM 69.8 °F - 68.0 °F 94% 29.98 in 1.0 mi Calm Calm - N/A   Mist
3:38 AM 69.8 °F - 68.0 °F 94% 29.98 in 3.0 mi Calm Calm - N/A   Overcast
3:58 AM 71.1 °F - 69.1 °F 93% 29.97 in 4.0 mi Calm Calm - N/A   Overcast
4:26 AM 71.6 °F - 68.0 °F 88% 29.99 in 1.8 mi Calm Calm - N/A   Overcast
4:33 AM 69.8 °F - 69.8 °F 100% 29.99 in 0.8 mi Calm Calm - N/A   Mist
4:41 AM 69.8 °F - 69.8 °F 100% 30.00 in 1.5 mi Calm Calm - N/A   Overcast
4:45 AM 69.8 °F - 68.0 °F 94% 30.00 in 3.0 mi Calm Calm - N/A   Overcast
4:58 AM 71.1 °F - 69.1 °F 93% 29.99 in 3.0 mi Calm Calm - N/A   Overcast
5:04 AM 71.6 °F - 69.8 °F 94% 30.00 in 2.0 mi Calm Calm - N/A   Overcast
5:08 AM 71.6 °F - 69.8 °F 94% 30.00 in 1.5 mi Calm Calm - N/A   Overcast
5:16 AM 71.6 °F - 69.8 °F 94% 30.00 in 0.5 mi Calm Calm - N/A Fog Fog
5:34 AM 71.6 °F - 69.8 °F 94% 30.00 in 1.5 mi Calm Calm - N/A   Overcast
5:37 AM 71.6 °F - 69.8 °F 94% 30.01 in 3.0 mi Calm Calm - N/A   Overcast
5:48 AM 71.6 °F - 69.8 °F 94% 30.01 in 1.8 mi Calm Calm - N/A   Overcast
5:58 AM 71.1 °F - 69.1 °F 93% 30.01 in 1.0 mi Calm Calm - N/A   Mist
6:06 AM 71.6 °F - 69.8 °F 94% 30.02 in 0.8 mi Calm Calm - N/A   Overcast
6:21 AM 71.6 °F - 69.8 °F 94% 30.02 in 1.2 mi Calm Calm - N/A   Overcast
6:28 AM 71.6 °F - 69.8 °F 94% 30.03 in 3.0 mi Calm Calm - N/A   Overcast
6:50 AM 71.6 °F - 69.8 °F 94% 30.02 in 2.5 mi Calm Calm - N/A   Overcast
6:57 AM 72.0 °F - 70.0 °F 93% 30.01 in 4.0 mi Calm Calm - N/A   Overcast
7:09 AM 71.6 °F - 69.8 °F 94% 30.02 in 2.5 mi Calm Calm - N/A   Overcast
7:25 AM 71.6 °F - 69.8 °F 94% 30.02 in 3.0 mi Calm Calm - N/A   Overcast
7:58 AM 73.9 °F - 71.1 °F 91% 30.00 in 8.0 mi Calm Calm - N/A   Overcast
8:58 AM 77.0 °F - 72.0 °F 84% 29.99 in 9.0 mi Calm Calm - N/A   Overcast
9:11 AM 77.0 °F - 71.6 °F 83% 30.00 in 10.0 mi Calm Calm - N/A   Mostly Cloudy
9:33 AM 78.8 °F - 71.6 °F 78% 29.99 in 10.0 mi Calm Calm - N/A   Scattered Clouds
9:38 AM 80.6 °F 84.6 °F 71.6 °F 74% 29.99 in 10.0 mi Calm Calm - N/A   Mostly Cloudy
9:50 AM 80.6 °F 84.6 °F 71.6 °F 74% 29.99 in 10.0 mi Calm Calm - N/A   Mostly Cloudy
9:57 AM 82.0 °F 86.3 °F 71.1 °F 69% 29.98 in 10.0 mi Calm Calm - N/A   Scattered Clouds
10:04 AM 82.4 °F 86.3 °F 69.8 °F 66% 29.99 in 10.0 mi Calm Calm - N/A   Mostly Cloudy
10:11 AM 80.6 °F 83.9 °F 69.8 °F 70% 29.99 in 10.0 mi West 3.5 mph - N/A   Mostly Cloudy
10:58 AM 82.9 °F 86.5 °F 69.1 °F 63% 29.97 in 10.0 mi SSW 4.6 mph - N/A   Mostly Cloudy
11:58 AM 86.0 °F 90.7 °F 70.0 °F 59% 29.96 in 10.0 mi Variable 4.6 mph - N/A   Partly Cloudy
12:58 PM 89.1 °F 93.7 °F 69.1 °F 52% 29.93 in 10.0 mi Variable 4.6 mph - N/A   Partly Cloudy
1:58 PM 89.1 °F 92.9 °F 68.0 °F 50% 29.92 in 10.0 mi SW 9.2 mph - N/A   Scattered Clouds
2:58 PM 90.0 °F 95.4 °F 70.0 °F 52% 29.89 in 10.0 mi South 8.1 mph - N/A   Scattered Clouds
3:58 PM 87.1 °F 92.8 °F 71.1 °F 59% 29.88 in 10.0 mi SSW 15.0 mph 20.7 mph N/A   Mostly Cloudy
4:30 PM 82.4 °F 89.5 °F 75.2 °F 79% 29.89 in 10.0 mi SSW 10.4 mph - 0.02 in Thunderstorm Thunderstorm
4:58 PM 82.9 °F 87.0 °F 70.0 °F 65% 29.88 in 10.0 mi SSW 10.4 mph - 0.02 in Thunderstorm Thunderstorm
5:15 PM 80.6 °F 85.4 °F 73.4 °F 79% 29.88 in 9.0 mi SSW 11.5 mph - N/A   Mostly Cloudy
5:49 PM 77.0 °F - 73.4 °F 89% 29.91 in 10.0 mi NW 8.1 mph - 0.01 in Thunderstorm Thunderstorm
5:58 PM 75.0 °F - 72.0 °F 90% 29.91 in 10.0 mi North 8.1 mph 18.4 mph 0.01 in Thunderstorm Thunderstorm
6:09 PM 73.4 °F - 71.6 °F 94% 29.94 in 7.0 mi Calm Calm - 0.01 in Thunderstorm Thunderstorm
6:20 PM 71.6 °F - 69.8 °F 94% 29.95 in 1.8 mi North 9.2 mph - 0.12 in Thunderstorm Overcast
6:25 PM 71.6 °F - 69.8 °F 94% 29.95 in 0.8 mi North 10.4 mph 18.4 mph 0.38 in Thunderstorm Overcast
6:39 PM 71.6 °F - 69.8 °F 94% 29.95 in 1.0 mi North 4.6 mph - 0.71 in Thunderstorm Overcast
6:46 PM 71.6 °F - 69.8 °F 94% 29.95 in 2.5 mi North 9.2 mph - 0.79 in Thunderstorm Overcast
6:49 PM 71.6 °F - 69.8 °F 94% 29.95 in 1.8 mi North 4.6 mph - 0.85 in Thunderstorm Overcast
6:57 PM 71.1 °F - 69.1 °F 93% 29.94 in 2.0 mi North 8.1 mph - 0.89 in Thunderstorm Overcast
7:02 PM 71.6 °F - 69.8 °F 94% 29.95 in 4.0 mi North 3.5 mph - 0.02 in Thunderstorm Overcast
7:38 PM 71.6 °F - 69.8 °F 94% 29.94 in 1.8 mi Calm Calm - 0.06 in   Overcast
7:57 PM 72.0 °F - 70.0 °F 93% 29.92 in 3.0 mi East 3.5 mph - 0.13 in   Overcast
8:58 PM 73.0 °F - 70.0 °F 90% 29.94 in 10.0 mi Calm Calm - 0.01 in   Overcast
9:58 PM 72.0 °F - 69.1 °F 91% 29.94 in 10.0 mi SE 3.5 mph - N/A   Partly Cloudy
10:47 PM 71.6 °F - 69.8 °F 94% 29.98 in 10.0 mi Variable 4.6 mph - N/A   Overcast
10:58 PM 73.0 °F - 70.0 °F 90% 29.96 in 8.0 mi SW 3.5 mph - N/A   Overcast
11:17 PM 73.4 °F - 69.8 °F 88% 29.98 in 2.0 mi Calm Calm - 0.04 in   Overcast
11:34 PM 73.4 °F - 71.6 °F 94% 29.95 in 1.8 mi Variable 3.5 mph - 0.12 in   Overcast
11:41 PM 73.4 °F - 71.6 °F 94% 29.94 in 3.0 mi South 6.9 mph - 0.14 in   Overcast
11:58 PM 73.0 °F - 71.1 °F 93% 29.92 in 5.0 mi South 3.5 mph - 0.18 in   Overcast